Location: Bailleul
(50.3375°N, 2.8513°E)
Time: 05:08:18
(UTC+00:00)

BREEZE-M DEB (TANK) - Pass Details

Date: 19 April 2021
Orbit: 289 x 13026 km, 49.6° (Epoch: 09 May)

Event Time Altitude Azimuth Distance (km) Brightness Sun altitude
Rises 21:15:26 0° 268° (W) 3,007 6.6 -19.8°
Reaches altitude 10° 21:16:52 10° 268° (W) 2,428 6.1 -20.0°
Maximum altitude 21:22:12 87° 181° (S) 1,587 4.5 -20.5°
Drops below altitude 10° 21:45:44 10° 96° (E) 9,326 8.2 -22.7°
Sets 21:59:26 0° 98° (E) 12,855 8.9 -23.8°
